Grand Junction, CO

7:13 AM MDT on September 16, 2019 (GMT -0600)
Walker

Weather History for KGJT - April, 2019

Change the Weather History Date:

Wednesday, April 3, 2019

  Actual Average Record
Temperature  
Mean Temperature 53 °F 48 °F  
Max Temperature 62 °F 62 °F 81 °F (1943)
Min Temperature 43 °F 35 °F 22 °F (1945)
Degree Days  
Heating Degree Days 12 17  
Month to date heating degree days 41 51  
Since 1 July heating degree days 5149 5083  
Cooling Degree Days 0 0  
Month to date cooling degree days 0 0  
Year to date cooling degree days 0 0  
Growing Degree Days 4 (Base 50)    
Moisture  
Dew Point 36 °F    
Average Humidity 55    
Maximum Humidity 76    
Minimum Humidity 34    
Precipitation  
Precipitation 0.01 in 0.04 in 0.45 in (2009)
Month to date precipitation 0.01 0.10  
Year to date precipitation 3.74 2.14  
Snow  
Snow 0.00 in 0.10 in 2.20 in (1983)
Month to date snowfall 0.0 0.2  
Since 1 July snowfall 17.4 18.3  
Snow Depth 0.00 in    
Sea Level Pressure  
Sea Level Pressure 29.84 in    
Wind  
Wind Speed 7 mph (ESE)    
Max Wind Speed 18 mph    
Max Gust Speed 27 mph    
Visibility 10 miles    
Events Rain    
T = Trace of Precipitation, MM = Missing Value Source: NWS Daily Summary

Daily Weather History Graph

Daily Weather History Graph

Search for Another Location

Airport or City:

Astronomy

Apr. 03, 2019 Rise Set
Actual Time 6:55 AM MDT 7:39 PM MDT
Civil Twilight 6:28 AM MDT 8:06 PM MDT
Nautical Twilight 5:56 AM MDT 8:38 PM MDT
Astronomical Twilight 5:23 AM MDT 9:11 PM MDT
Moon 6:30 AM MDT (4/3) 6:12 PM MDT (4/3)
Length of Visible Light 13h 38m
Length of Day
12h 43m
Waning Crescent, 3% of the Moon is Illuminated
Apr 3
Waning Crescent
Apr 5
New
Apr 12
First Quarter
Apr 19
Full
Apr 26
Last Quarter

Hourly Weather History & Observations

Time (MDT) Temp. Windchill Dew Point Humidity Pressure Visibility Wind Dir Wind Speed Gust Speed Precip Events Conditions
12:53 AM 45.0 °F 41.8 °F 34.0 °F 65% 29.76 in 10.0 mi ESE 5.8 mph - N/A   Scattered Clouds
1:53 AM 46.9 °F - 34.0 °F 61% 29.76 in 10.0 mi SE 5.8 mph - N/A   Overcast
2:53 AM 48.0 °F - 35.1 °F 61% 29.78 in 10.0 mi Calm Calm - 0.00 in   Overcast
3:53 AM 46.9 °F - 37.0 °F 68% 29.75 in 10.0 mi East 6.9 mph - 0.00 in   Overcast
4:53 AM 46.0 °F 41.9 °F 37.0 °F 71% 29.76 in 10.0 mi ENE 8.1 mph - N/A   Overcast
5:53 AM 45.0 °F 43.5 °F 37.0 °F 74% 29.78 in 10.0 mi SSW 3.5 mph - N/A   Mostly Cloudy
6:53 AM 46.0 °F - 37.0 °F 71% 29.81 in 10.0 mi Calm Calm - 0.00 in Rain Light Rain
7:53 AM 46.0 °F 41.9 °F 37.9 °F 73% 29.81 in 10.0 mi East 8.1 mph - 0.00 in   Mostly Cloudy
8:53 AM 50.0 °F - 37.0 °F 61% 29.81 in 10.0 mi East 5.8 mph - N/A   Overcast
9:53 AM 51.1 °F - 35.1 °F 54% 29.81 in 10.0 mi ESE 13.8 mph - N/A   Mostly Cloudy
10:53 AM 55.0 °F - 35.1 °F 47% 29.82 in 10.0 mi ESE 8.1 mph - N/A   Scattered Clouds
11:53 AM 59.0 °F - 33.8 °F 39% 29.80 in 10.0 mi East 9.2 mph - N/A   Scattered Clouds
12:53 PM 55.0 °F - 36.0 °F 49% 29.82 in 10.0 mi West 13.8 mph - N/A   Overcast
1:03 PM 53.1 °F - 37.0 °F 55% 29.91 in 7.0 mi NW 9.2 mph 23.0 mph 0.00 in Rain Light Rain
1:53 PM 57.9 °F - 37.0 °F 46% 29.82 in 10.0 mi Calm Calm - 0.01 in   Partly Cloudy
2:53 PM 57.9 °F - 35.1 °F 42% 29.81 in 10.0 mi South 5.8 mph - N/A   Clear
3:53 PM 57.9 °F - 36.0 °F 44% 29.81 in 10.0 mi SSW 6.9 mph - N/A   Mostly Cloudy
4:53 PM 62.1 °F - 34.0 °F 35% 29.82 in 10.0 mi Variable 3.5 mph - N/A   Partly Cloudy
5:53 PM 59.0 °F - 35.1 °F 41% 29.86 in 10.0 mi North 9.2 mph - N/A   Partly Cloudy
6:53 PM 55.9 °F - 37.0 °F 49% 29.88 in 10.0 mi Variable 4.6 mph - N/A   Mostly Cloudy
7:53 PM 53.1 °F - 37.0 °F 55% 29.91 in 10.0 mi SE 5.8 mph - N/A   Clear
8:53 PM 46.9 °F - 37.0 °F 68% 29.94 in 10.0 mi ESE 8.1 mph - N/A   Clear
9:53 PM 48.0 °F - 36.0 °F 63% 29.97 in 10.0 mi ESE 10.4 mph - N/A   Clear
10:53 PM 46.9 °F - 37.0 °F 68% 29.98 in 10.0 mi East 12.7 mph - N/A   Mostly Cloudy
11:53 PM 46.9 °F - 37.0 °F 68% 29.98 in 10.0 mi East 15.0 mph - N/A   Mostly Cloudy